Torna al catalogo

STARLINK-36251

AttivoComunicazioniVLEO
NORAD 68093·PAYLOAD·🇺🇸 United States

Lanciato Mar 4, 2026 da Vandenberg Space Force Base

Loading…

Prossimi Passaggi (prossime 24 ore)

TLE

AggiornatoSource: CelesTrak SupGP

Epoca: Sep 14, 2026, 21:28 UTC

1 68093C 26042AA  26257.89493056  .00010619  00000+0  31390-3 0  2578
2 68093  53.1606  15.8893 0001212  82.7566 132.2265 15.34368770    19

Traccia STARLINK-36251 in tempo reale con AllMySat

Download on the App Store